Location: Grandchamp
(47.3639°N, 1.6052°W)
Time: 22:53:42
(UTC+00:00)

Daily predictions for brighter satellites

Satellite Brightness Start Highest point End
(mag) Time Altitude Azimuth Time Altitude Azimuth Time Altitude Azimuth
H-2A R/B 4.5 18:03:29 10° SSW 18:08:01 30° W 18:12:42 10° NNW
Okean O Rocket 2.5 18:06:51 10° SE 18:10:34 28° ENE 18:14:20 10° N
Cosmos 2084 4.0 18:07:35 10° WSW 18:11:19 52° NW 18:15:03 10° NNE
SKYMED 2 3.5 18:10:05 10° NNE 18:14:25 68° ESE 18:18:45 10° S
Nadezhda 4 Rocket 4.4 18:09:18 10° SSE 18:15:06 40° E 18:20:53 10° NNE
Cosmos 2227 Rocket 4.4 18:11:28 10° NW 18:16:20 30° WSW 18:21:12 10° SSW
Cosmos 2285 Rocket 4.2 18:15:07 10° NNW 18:21:20 52° ENE 18:27:32 10° SE
PSLV R/B 3.6 18:19:04 10° SSE 18:22:43 71° ENE 18:26:23 10° N
Cosmos 1726 2.2 18:19:41 10° S 18:23:13 49° E 18:26:45 10° NNE
Cosmos 2322 Rocket 3.4 18:19:18 10° SE 18:23:20 20° E 18:27:23 10° NE
USA 186 3.9 18:22:42 10° E 18:23:45 12° ENE 18:25:00 10° NE
CZ-4 R/B 4.5 18:21:59 10° SSE 18:26:06 87° W 18:30:14 10° NNW
Cosmos 1470 4.1 18:25:21 10° SE 18:28:04 19° E 18:30:47 10° NE
Cosmos 841 Rocket 3.8 18:22:53 10° NNW 18:28:04 73° WSW 18:33:11 10° SSE
Cosmos 1980 Rocket 2.4 18:23:19 10° SSW 18:28:58 79° WNW 18:34:37 10° NNE
CZ-4B R/B 3.2 18:23:41 10° SSE 18:28:59 62° ENE 18:34:25 10° N
Cosmos 1378 Rocket 3.5 18:25:09 10° N 18:29:31 70° ENE 18:33:51 10° SSE
Cosmos 1975 Rocket 4.4 18:27:12 10° NNE 18:30:26 20° ENE 18:33:08 12° ESE
Timation 2 Rocket 4.1 18:24:36 10° NNW 18:31:05 84° WSW 18:37:14 10° SSE
ARGOS Delta rocket 4.0 18:26:30 10° NNE 18:31:41 57° E 18:36:34 10° S
DMSP B5D2-2 4.2 18:27:11 10° NNE 18:32:30 85° WNW 18:37:45 10° SSW
Cosmos 2292 Rocket 4.2 18:33:27 10° SSE 18:38:03 34° E 18:41:40 10° NNE
Meteor 2-14 Rocket 4.4 18:33:50 10° S 18:39:52 75° E 18:45:56 10° NNE
Cosmos 1733 Rocket 3.7 18:37:46 10° SSW 18:42:09 62° WNW 18:46:36 10° N
Cosmos 1850 Rocket 4.4 18:37:17 10° SSW 18:42:29 69° WNW 18:47:46 10° NNE
USA 215 3.5 18:38:42 10° NE 18:45:15 74° NNW 18:51:45 10° WSW
Cosmos 2369 4.5 18:41:06 10° SW 18:46:43 56° WNW 18:52:21 10° NNE
COBE Rocket 3.8 18:42:18 10° SSE 18:47:09 86° ENE 18:51:55 10° NNW
Cosmos 2221 Rocket 4.4 18:43:05 10° NNW 18:47:32 58° W 18:51:59 10° S
Cosmos 1844 Rocket 3.4 18:44:10 10° NNW 18:49:23 35° NE 18:52:59 18° ESE
Cosmos 2278 3.7 18:46:40 10° SSW 18:52:22 90° SE 18:58:05 10° NNE
SL-16 R/B 2.4 18:47:51 10° S 18:53:15 47° ESE 18:58:39 10° NE
Cosmos 1570 Rocket 4.0 18:49:43 10° NNW 18:54:59 70° ENE 19:00:11 10° SSE
Landsat 5 4.5 18:52:17 10° NE 18:56:09 27° E 18:59:55 10° SSE
Cosmos 1092 Rocket 4.2 18:50:36 10° SSE 18:56:33 46° E 19:02:29 10° NNE
Resurs 01 Rocket 3.5 19:01:19 14° NE 19:01:19 14° NE 19:03:18 10° NNE
DMSP B5D1-3 4.4 18:56:33 10° NNE 19:01:40 66° ESE 19:06:44 10° S
COSMO-SKYMED 1 4.1 18:58:19 10° N 19:02:23 40° WNW 19:06:26 10° SW
Meteor 2-21 Rocket 4.3 18:56:32 10° S 19:02:34 78° E 19:08:39 10° NNE
SJ-6B 3.5 19:02:07 27° E 19:03:02 31° ENE 19:06:26 10° N
Cosmos 2278 Rocket 4.3 19:02:00 10° NNE 19:03:35 11° NNE 19:05:10 10° NE
HJ-1C 3.4 19:01:09 10° S 19:04:15 69° WSW 19:07:22 10° NNW
Cosmos 1437 Rocket 2.5 19:01:48 10° S 19:05:31 69° E 19:09:14 10° NNE
H-2A R/B 4.2 19:07:11 15° NE 19:07:11 15° NE 19:08:42 10° NNE
Cosmos 2263 Rocket 3.3 19:03:13 10° NW 19:08:36 45° WSW 19:13:59 10° S
Meteor 1-24 Rocket 3.6 19:05:18 10° N 19:10:35 62° ENE 19:15:55 10° SSE
Resurs 1-3 4.4 19:11:26 29° E 19:12:13 31° ENE 19:16:05 10° N
SL-4 R/B 2.9 19:10:48 10° WNW 19:15:08 50° SW 19:17:52 22° SSE
Meteor 2-16 Rocket 4.4 19:10:24 10° S 19:16:32 85° E 19:22:44 10° N
Feng Yun 1-1 Rocket 4.2 19:11:27 10° SSE 19:16:56 88° WSW 19:22:23 10° NNW
Cosmos 2084 Rocket 3.1 19:14:45 10° NW 19:18:35 72° NE 19:19:51 41° ESE
USA 267 3.9 19:14:36 10° SSE 19:20:56 51° SW 19:27:19 10° WNW
Okean-O 2.9 19:20:29 35° ESE 19:21:50 46° ENE 19:26:05 10° N
ISS -1.0 19:20:08 10° W 19:22:02 14° SW 19:23:56 10° S
Cosmos 1486 Rocket 4.4 19:17:53 10° S 19:22:47 39° ESE 19:27:44 10° NE
CZ-4 R/B 1.9 19:18:58 10° S 19:23:05 64° WSW 19:27:16 10° NNW
Cosmos 2208 Rocket 4.1 19:18:14 10° NNW 19:23:39 87° WSW 19:28:16 15° SSE
OBJECT-B 1.8 19:24:56 27° N 19:24:56 27° N 19:26:16 10° N
Cosmos 1844 3.9 19:18:37 10° NNW 19:24:03 51° ENE 19:26:12 33° ESE
IGS 5A 3.5 19:24:38 41° ESE 19:25:41 54° ENE 19:29:44 10° N
DNEPR-1 R/B 4.0 19:22:12 10° SSW 19:26:41 50° ESE 19:30:36 18° NE
Meteor 1-22 Rocket 4.0 19:22:28 10° S 19:27:53 81° E 19:33:33 10° NNE
Helios 1B 4.4 19:25:46 10° NNE 19:30:08 82° ESE 19:34:27 10° SSW
Cosmos 1300 Rocket 3.7 19:30:14 46° E 19:30:22 47° E 19:34:34 10° NNE
Cosmos 1908 Rocket 4.3 19:26:20 10° SSW 19:30:34 54° WNW 19:34:51 10° N
CSL-04 Debris 4.0 19:28:02 19° SSE 19:31:58 75° ENE 19:37:22 10° NNW
Cosmos 1428 Rocket 4.4 19:25:54 10° S 19:32:05 82° E 19:38:22 10° N
Cosmos 1627 Rocket 4.3 19:29:28 10° S 19:35:34 79° E 19:41:43 10° N
Cosmos 2195 Rocket 4.5 19:29:35 10° S 19:35:50 90° NW 19:42:11 10° N
Cosmos 2360 Rocket 2.3 19:32:21 10° S 19:37:45 49° ESE 19:43:11 10° NE
Cosmos 1782 Rocket 3.5 19:34:23 10° S 19:38:43 83° W 19:43:07 10° N
USA 81 3.9 19:34:00 10° N 19:39:19 83° E 19:43:22 18° S
YAOGAN 1 4.5 19:38:56 10° SSW 19:42:43 30° W 19:46:33 10° NNW
Cosmos 1025 Rocket 2.9 19:39:00 10° N 19:43:20 88° W 19:44:51 40° S
Okean O Rocket 3.3 19:42:53 10° SSW 19:46:49 33° W 19:50:49 10° NNW
Cosmos 968 Rocket 4.2 19:43:48 10° SW 19:48:57 55° WNW 19:54:06 10° NNE
Lacrosse 4 Rocket 1.2 19:45:59 10° SSW 19:50:04 87° SE 19:50:18 79° NE
Cosmos 2026 Rocket 3.9 19:46:04 10° S 19:52:08 81° W 19:58:14 10° N
USA 186 2.7 19:55:51 51° W 19:55:51 51° W 19:58:53 10° NNW
CSL-04 Rocket 3.7 19:55:05 29° S 19:57:55 77° WSW 20:03:22 10° NNW
ATLAS 2AS CENTAUR R/B 4.3 19:52:41 10° NW 19:58:25 24° NNE 20:01:35 18° NE
BREEZE-M R/B 4.3 19:56:51 10° WSW 19:58:03 32° WSW 19:58:03 32° WSW
MOS 1 4.4 20:01:33 51° ENE 20:01:37 51° ENE 20:07:05 10° N
Cosmos 1470 4.3 20:00:12 10° SW 20:03:44 35° WNW 20:07:19 10° N
Cosmos 1553 Rocket 3.9 19:57:41 10° N 20:04:06 82° E 20:06:34 41° SSE
Landsat 7 3.6 20:04:05 79° SSE 20:04:24 90° ENE 20:09:09 10° NNW
deb Chang Zheng 4 4.3 20:05:56 42° N 20:05:56 42° N 20:08:48 10° N
Cosmos 2322 Rocket 2.4 20:01:06 10° SW 20:06:47 71° WNW 20:12:31 10° NNE
SPOT 1/Viking Rocket 3.9 20:07:54 50° NE 20:07:54 50° NE 20:12:12 10° N
Cosmos 2237 4.5 20:01:56 10° SW 20:07:37 68° WNW 20:13:19 10° NNE
Cosmos 1975 Rocket 4.0 20:04:20 10° NNW 20:08:33 46° W 20:10:19 29° SSW
NOSS 3-4 (A) 4.2 20:04:14 10° NW 20:10:46 48° NE 20:12:04 44° ENE
NOSS 3-4 (C) 4.2 20:04:20 10° NW 20:10:52 48° NE 20:12:10 44° ENE
Ariane Rocket 4.1 20:16:25 32° NNE 20:16:25 32° NNE 20:19:35 10° N
NOSS 3-3 (A) 3.7 20:14:51 10° SSW 20:20:02 74° SSE 20:20:02 74° SSE
NOSS 3-3 (C) 3.7 20:14:57 10° SSW 20:19:58 70° S 20:19:58 70° S
Aureole 1 Rocket 3.9 20:17:23 10° SSW 20:24:50 79° ESE 20:30:42 10° NNE
USA 281 4.2 20:27:40 30° NE 20:27:40 30° NE 20:32:58 10° N
USA 215 4.2 20:24:15 23° NE 20:27:46 42° N 20:33:48 10° WNW
Cosmos 1844 Rocket 3.6 20:28:02 10° NW 20:33:23 44° WSW 20:34:40 38° SW
Resurs 01 Rocket 3.1 20:38:53 33° NNW 20:38:53 33° NNW 20:41:24 10° NNW
SL-16 R/B 3.8 20:32:23 10° WSW 20:37:30 34° NW 20:42:40 10° NNE
Cosmos 2315 Rocket 4.5 20:33:03 10° N 20:37:56 48° NNE 20:37:56 48° NNE
Terra 4.2 20:42:43 13° NNE 20:42:43 13° NNE 20:43:24 10° N
Cosmos 1943 Rocket 4.3 20:36:49 10° N 20:38:59 15° NNE 20:38:59 15° NNE
Cosmos 2278 Rocket 3.5 20:44:01 10° NNW 20:47:32 32° NNE 20:47:32 32° NNE
Cosmos 2360 Rocket 3.8 21:16:57 10° WSW 21:21:58 32° NW 21:27:01 10° NNE
ATLAS 2AS CENTAUR R/B 3.8 21:44:11 10° NW 21:49:00 38° N 21:49:00 38° N
